Regional Weather Roundup
Issued by NWS

Home | Current Version | Previous Version | Graphics & Text | Print | Product List | Glossary On
Versions: 1 2 3 4 5 6 7 8 9 10 11 12 13 14 15 16 17 18 19 20 21 22 23 24 25 26 27 28 29 30 31 32 33 34 35 36 37 38 39 40 41 42 43 44 45 46 47 48 49 50
484
ASUS43 KFSD 240602
RWRSD

WEATHER ROUNDUP FOR SOUTH DAKOTA
NATIONAL WEATHER SERVICE SIOUX FALLS SD
100 AM CDT MON JUL 24 2017

NOTE: "FAIR" INDICATES FEW OR NO CLOUDS BELOW 12,000 FEET WITH NO
SIGNIFICANT WEATHER AND/OR OBSTRUCTIONS TO VISIBILITY.


SDZ001>005-009-010-012>017-240700-
NORTHWEST AND NORTH CENTRAL SOUTH DAKOTA

CITY           SKY/WX    TMP DP  RH WIND       PRES   REMARKS
BUFFALO          N/A     74  51  44 SE17      29.87F
FAITH            N/A     71  55  56 SE20      29.95F
MOBRIDGE       CLEAR     69  61  75 SE14      29.94F
$$

SDZ012>016-024>037-041>051-057-063-072>074-240700-
SOUTHWEST AND SOUTH CENTRAL SOUTH DAKOTA

CITY           SKY/WX    TMP DP  RH WIND       PRES   REMARKS
RAPID CTY ARPT CLEAR     69  49  48 SE8       29.96F
PIERRE         CLEAR     68  58  70 SE9       29.97R
CUSTER         CLOUDY    69  46  43 E8        30.11F
ELLSWORTH AFB  CLEAR     71  49  45 SE6       29.95F
PHILIP         CLEAR     72  53  51 E9        29.96R
PINE RIDGE     CLEAR     77  55  46 SE26G38   29.94F
SPEARFISH      FAIR      77  48  36 SE16G24   29.94F
WINNER         FAIR      68  58  70 SE13      30.00F
$$

SDZ004>011-016>023-039-040-240700-
NORTHEAST SOUTH DAKOTA

CITY           SKY/WX    TMP DP  RH WIND       PRES   REMARKS
ABERDEEN       CLEAR     61  60  97 SE6       30.00S
WATERTOWN      CLEAR     61  58  90 CALM      30.02F
BROOKINGS      CLEAR     64  58  80 E7        30.04S
SISSETON         N/A     57  56  96 CALM      30.01S
$$

SDZ017-020-022-023-036>040-048>070-240700-
SOUTHEAST SOUTH DAKOTA

CITY           SKY/WX    TMP DP  RH WIND       PRES   REMARKS
SIOUX FALLS    CLEAR     61  59  93 CALM      30.03S
HURON          CLEAR     66  62  87 SE10      29.99F
CHAMBERLAIN    CLEAR     66  61  82 E6        30.00S
MITCHELL       CLEAR     65  61  87 SE8       30.01S
YANKTON        CLEAR     64  61  90 E5        30.02S
$$

ABBREVIATIONS USED IN REMARKS
   TC - TEMPERATURE IN CELSIUS
  WCI - WIND CHILL INDEX
   HX - HEAT INDEX
  VSB - VISIBILITY





USA.gov is the U.S. government's official web portal to all federal, state and local government web resources and services.